VE3KSR Weather Reports


Display with metric or nautical units.
time (UTC)temp
F
wind
direction
speed
MPH
gust
MPH
rain 1hr
in
rain 24hr
in
rain mn
in
humidity
%
barometer
mb
20141030125617 35 330 12.0 14.0 0.13 0.00 0.00 99 1015.7
20141030125119 35 330 12.0 14.0 0.13 0.00 0.00 99 1015.4
20141030124618 35 318 11.0 13.0 0.13 0.00 0.00 99 1015.3
20141030124344 35 321 11.0 13.0 0.13 0.00 0.00 98 1015.2
20141030124118 35 330 11.0 14.0 0.13 0.00 0.00 99 1015.2
20141030123617 35 325 10.0 13.0 0.13 0.00 0.00 99 1015.1
20141030123122 35 315 10.0 11.0 0.13 0.00 0.00 98 1015.0
20141030122617 35 321 11.0 13.0 0.13 0.00 0.00 98 1015.2
20141030122117 35 329 10.0 12.0 0.13 0.00 0.00 98 1015.1
20141030121618 35 315 10.0 12.0 0.13 0.00 0.00 98 1015.3
20141030121117 35 336 11.0 14.0 0.13 0.00 0.00 98 1015.3
20141030120619 35 328 10.0 11.0 0.13 0.00 0.00 98 1015.3
20141030120120 36 326 10.0 13.0 0.13 0.00 0.00 98 1015.3
20141030115620 36 323 10.0 12.0 0.13 0.00 0.00 98 1015.4
20141030115117 36 335 11.0 14.0 0.13 0.00 0.00 98 1015.3
20141030114618 36 332 11.0 14.0 0.13 0.00 0.00 98 1015.4
20141030114118 36 329 11.0 13.0 0.13 0.00 0.00 98 1015.2
20141030113619 36 335 11.0 13.0 0.13 0.00 0.00 98 1015.0
20141030113117 36 335 11.0 13.0 0.13 0.00 0.00 98 1014.7
20141030112617 36 328 10.0 12.0 0.13 0.00 0.00 98 1014.6
20141030112118 37 332 10.0 12.0 0.13 0.00 0.00 98 1014.7
20141030111617 37 338 11.0 14.0 0.13 0.00 0.00 98 1014.7
20141030111117 37 332 11.0 13.0 0.13 0.00 0.00 99 1014.7
20141030110617 37 349 11.0 14.0 0.13 0.00 0.00 99 1015.0
20141030110119 37 353 11.0 15.0 0.13 0.00 0.00 98 1015.1
20141030105617 37 359 12.0 14.0 0.13 0.00 0.00 98 1015.0
20141030105118 37 338 12.0 15.0 0.13 0.00 0.00 99 1015.0
20141030104617 37 336 12.0 15.0 0.13 0.00 0.00 99 1015.0
20141030104117 37 336 12.0 15.0 0.13 0.00 0.00 99 1015.0
20141030103617 37 342 12.0 15.0 0.13 0.00 0.00 99 1015.0
20141030103118 37 335 13.0 15.0 0.13 0.00 0.00 99 1014.7
20141030102617 37 328 10.0 13.0 0.13 0.00 0.00 99 1014.5
20141030102117 37 335 10.0 14.0 0.13 0.00 0.00 99 1014.5
20141030101622 37 330 13.0 15.0 0.13 0.00 0.00 99 1014.5
20141030101618 37 330 13.0 15.0 0.13 0.00 0.00 99 1014.5
20141030101117 37 330 12.0 15.0 0.13 0.00 0.00 99 1014.5
20141030100617 37 336 10.0 13.0 0.13 0.00 0.00 99 1014.6
20141030100117 37 338 11.0 13.0 0.13 0.00 0.00 99 1014.7
20141030095617 37 319 12.0 15.0 0.13 0.00 0.00 99 1014.7
20141030095119 37 323 11.0 14.0 0.13 0.00 0.00 99 1014.7
20141030094618 37 318 11.0 13.0 0.13 0.00 0.00 99 1014.7
20141030094117 37 328 12.0 15.0 0.13 0.00 0.00 99 1014.7
20141030093619 37 330 12.0 15.0 0.13 0.00 0.00 99 1014.8
20141030093118 37 329 11.0 15.0 0.13 0.00 0.00 99 1014.5
20141030092617 37 0 11.0 13.0 0.13 0.00 0.00 99 1014.5
20141030092119 37 322 11.0 14.0 0.13 0.00 0.00 99 1014.3
20141030091617 37 325 10.0 12.0 0.13 0.00 0.00 99 1014.1
20141030091118 37 332 11.0 13.0 0.13 0.00 0.00 99 1014.1
20141030090620 37 335 11.0 13.0 0.13 0.00 0.00 99 1014.2
20141030090120 37 329 11.0 14.0 0.13 0.00 0.00 99 1014.3
20141030085618 37 326 12.0 16.0 0.13 0.00 0.00 99 1014.2
20141030085120 37 332 12.0 17.0 0.13 0.00 0.00 99 1014.3
20141030084617 37 314 12.0 15.0 0.13 0.00 0.00 99 1014.3
20141030084118 37 333 11.0 15.0 0.13 0.00 0.00 99 1014.3
20141030083617 37 330 9.0 11.0 0.13 0.00 0.00 99 1014.3
20141030083119 37 328 9.0 10.0 0.13 0.00 0.00 99 1014.3
20141030082619 37 325 10.0 12.0 0.13 0.00 0.00 99 1014.4
20141030082120 37 335 10.0 12.0 0.13 0.00 0.00 99 1014.3
20141030081618 36 336 9.0 11.0 0.13 0.00 0.00 99 1014.1
20141030081118 36 322 10.0 13.0 0.13 0.00 0.00 99 1013.9
20141030080618 36 336 8.0 11.0 0.13 0.00 0.00 99 1013.9
20141030075618 36 332 8.0 11.0 0.13 0.00 0.00 99 1013.9
20141030075118 36 332 8.0 11.0 0.13 0.00 0.00 99 1014.1
20141030074620 36 343 9.0 12.0 0.13 0.00 0.00 98 1014.0
20141030074618 36 343 9.0 12.0 0.13 0.00 0.00 99 1014.2
20141030074118 36 338 10.0 12.0 0.13 0.00 0.00 99 1014.3
20141030073617 36 342 11.0 14.0 0.13 0.00 0.00 99 1014.3
20141030073118 36 329 9.0 11.0 0.13 0.00 0.00 99 1014.3
20141030072618 36 332 9.0 11.0 0.13 0.00 0.00 99 1014.3
20141030072117 36 326 8.0 10.0 0.13 0.00 0.00 99 1014.3
20141030071617 36 340 8.0 10.0 0.13 0.00 0.00 99 1014.1
20141030071117 36 335 9.0 10.0 0.13 0.00 0.00 99 1013.8
20141030070617 36 333 8.0 10.0 0.13 0.00 0.00 99 1013.8
20141030070118 36 315 8.0 10.0 0.13 0.00 0.00 99 1013.8
20141030065619 36 333 8.0 10.0 0.13 0.00 0.00 99 1013.9
20141030065117 36 332 8.0 10.0 0.13 0.00 0.00 99 1014.0
20141030064620 36 339 11.0 13.0 0.13 0.00 0.00 99 1014.0
20141030064118 36 335 10.0 12.0 0.13 0.00 0.00 99 1014.0
20141030063617 36 347 9.0 12.0 0.13 0.00 0.00 99 1013.9
20141030063119 36 330 11.0 13.0 0.13 0.00 0.00 99 1014.0
20141030062617 36 335 10.0 14.0 0.13 0.00 0.00 99 1014.0
20141030062118 36 335 12.0 15.0 0.13 0.00 0.00 99 1014.0
20141030061618 36 336 11.0 14.0 0.13 0.00 0.00 99 1013.8
20141030061118 36 330 11.0 14.0 0.13 0.00 0.00 99 1013.6
20141030060618 36 328 12.0 16.0 0.13 0.00 0.00 99 1013.5
20141030060118 36 325 12.0 15.0 0.13 0.00 0.00 99 1013.5
20141030055618 36 333 11.0 15.0 0.13 0.00 0.00 99 1013.6
20141030055118 36 322 11.0 14.0 0.13 0.00 0.00 98 1013.7
20141030054618 36 328 12.0 13.0 0.13 0.00 0.00 98 1013.9
20141030054118 36 319 10.0 12.0 0.13 0.00 0.00 98 1013.9
20141030053618 36 338 10.0 13.0 0.13 0.00 0.00 98 1013.9
20141030053118 36 335 10.0 13.0 0.13 0.00 0.00 98 1014.0
20141030052618 37 336 10.0 13.0 0.13 0.00 0.00 98 1013.9
20141030052118 37 328 10.0 11.0 0.13 0.00 0.00 98 1013.8
20141030051618 37 333 9.0 11.0 0.13 0.00 0.00 98 1013.8
20141030051118 37 328 10.0 12.0 0.13 0.00 0.00 98 1013.6
20141030050622 37 329 9.0 12.0 0.13 0.00 0.00 98 1013.6
20141030050121 37 323 10.0 12.0 0.13 0.00 0.00 98 1013.6
20141030045621 37 2472 10.0 12.0 0.13 0.00 0.00 98 1013.6
20141030045618 37 312 10.0 12.0 0.13 0.00 0.00 98 1013.6
20141030045118 38 325 10.0 11.0 0.13 0.00 0.00 98 1013.7
20141030044619 38 333 10.0 12.0 0.13 0.00 0.00 98 1013.7
20141030044118 38 325 9.0 11.0 0.13 0.00 0.00 98 1013.8
20141030043623 38 338 9.0 10.0 0.13 0.00 0.00 98 1013.7
20141030043118 38 330 9.0 11.0 0.13 0.00 0.00 97 1013.9
20141030042620 38 338 10.0 13.0 0.13 0.00 0.00 97 1013.7
20141030042118 38 4 9.0 12.0 0.13 0.00 0.00 97 1013.6
20141030041618 38 349 9.0 11.0 0.13 0.00 0.00 97 1013.6
20141030041118 38 349 11.0 14.0 0.13 0.00 0.00 97 1013.5
20141030040618 38 350 11.0 15.0 0.13 0.00 0.00 97 1013.3
20141030040118 38 14 11.0 14.0 0.13 0.00 0.00 97 1013.4
20141030035619 39 345 12.0 14.0 0.13 0.00 0.00 97 1013.5
20141030035118 39 335 12.0 16.0 0.13 0.00 0.00 97 1013.5
20141030034622 39 330 13.0 16.0 0.13 0.00 0.00 97 1013.5
20141030034118 39 322 13.0 17.0 0.13 0.00 0.00 97 1013.6
20141030033618 39 345 15.0 21.0 0.13 0.00 0.00 98 1013.7
20141030033118 39 333 13.0 18.0 0.13 0.00 0.00 98 1013.8
20141030032620 39 335 11.0 14.0 0.13 0.00 0.00 97 1013.8
20141030032118 39 326 12.0 16.0 0.13 0.00 0.00 98 1013.5
20141030031618 39 340 12.0 17.0 0.13 0.00 0.00 97 1013.6
20141030031118 39 326 10.0 12.0 0.13 0.00 0.00 97 1013.4
20141030030618 39 326 9.0 11.0 0.13 0.00 0.00 97 1013.4
20141030030119 39 323 10.0 11.0 0.13 0.00 0.00 97 1013.3
20141030025618 39 322 10.0 11.0 0.13 0.00 0.00 97 1013.3
20141030025118 39 319 10.0 12.0 0.13 0.00 0.00 97 1013.5
20141030024914 39 326 9.0 12.0 0.13 0.00 0.00 97 1013.4
20141030024904 39 328 11.0 12.0 0.13 0.00 0.00 97 1013.5
20141030024620 39 326 9.0 12.0 0.13 0.00 0.00 97 1013.4
20141030024118 39 328 11.0 12.0 0.13 0.00 0.00 97 1013.5
20141030023618 39 356 9.0 12.0 0.13 0.00 0.00 97 1013.5
20141030023118 39 326 9.0 13.0 0.13 0.00 0.00 97 1013.6
20141030022618 39 328 11.0 13.0 0.13 0.00 0.00 97 1013.5
20141030022118 39 325 9.0 11.0 0.13 0.00 0.00 97 1013.3
20141030021618 39 330 10.0 11.0 0.13 0.00 0.00 97 1013.3
20141030021118 39 326 10.0 11.0 0.13 0.00 0.00 96 1013.0
20141030020619 39 330 9.0 10.0 0.13 0.00 0.00 96 1012.9
20141030020118 39 321 11.0 15.0 0.13 0.00 0.00 96 1012.8
20141030015619 39 323 11.0 14.0 0.13 0.00 0.00 96 1012.8
20141030015118 39 309 11.0 12.0 0.13 0.00 0.00 96 1013.0
20141030014619 39 332 9.0 11.0 0.13 0.00 0.00 96 1013.0
20141030014118 39 318 9.0 11.0 0.13 0.00 0.00 96 1013.1
20141030013618 39 328 8.0 10.0 0.13 0.00 0.00 96 1013.2
20141030013118 39 325 9.0 12.0 0.13 0.00 0.00 96 1013.3
20141030012618 39 301 9.0 12.0 0.13 0.00 0.00 96 1013.4
20141030012118 40 329 10.0 13.0 0.13 0.00 0.00 95 1013.3
20141030011620 40 332 11.0 14.0 0.13 0.00 0.00 95 1013.3
20141030011119 40 318 15.0 19.0 0.13 0.00 0.00 95 1013.3
20141030010619 40 322 12.0 17.0 0.13 0.00 0.00 95 1013.2
20141030010118 40 340 13.0 19.0 0.13 0.00 0.00 95 1013.0
20141030005618 40 345 13.0 17.0 0.13 0.00 0.00 94 1012.9
20141030005118 40 326 12.0 16.0 0.13 0.00 0.00 94 1012.9
20141030004618 41 339 12.0 17.0 0.13 0.00 0.00 93 1012.8
20141030004118 41 326 13.0 18.0 0.13 0.00 0.00 92 1012.7
20141030003618 41 326 12.0 16.0 0.13 0.00 0.00 93 1012.9
20141030003118 41 283 14.0 18.0 0.13 0.00 0.00 92 1012.8
20141030002618 41 294 14.0 17.0 0.13 0.00 0.00 92 1012.9
20141030002118 41 298 14.0 18.0 0.13 0.00 0.00 92 1013.0
20141030001618 41 305 14.0 17.0 0.13 0.00 0.00 92 1013.1
20141030001119 41 284 13.0 18.0 0.13 0.00 0.00 92 1013.0
20141030000618 41 285 13.0 18.0 0.13 0.00 0.00 92 1013.0
20141030000119 41 294 13.0 16.0 0.13 0.00 0.00 88 1012.9
20141029235618 41 307 13.0 16.0 0.13 0.00 0.00 92 1012.7
20141029235118 41 287 16.0 19.0 0.13 0.00 0.00 92 1012.7
20141029234618 41 280 16.0 21.0 0.13 0.00 0.00 91 1012.6
20141029234119 41 295 17.0 22.0 0.13 0.00 0.00 91 1012.4
20141029233618 41 278 17.0 23.0 0.13 0.00 0.00 91 1012.3
20141029233118 41 300 14.0 18.0 0.13 0.00 0.00 91 1012.4
20141029232618 41 298 12.0 16.0 0.13 0.00 0.00 91 1012.5
20141029232120 41 305 12.0 15.0 0.13 0.00 0.00 91 1012.6
20141029231618 41 307 12.0 15.0 0.13 0.00 0.00 91 1012.5
20141029231118 41 325 11.0 15.0 0.13 0.00 0.00 91 1012.5
20141029230621 41 300 12.0 16.0 0.13 0.00 0.00 90 1012.3
20141029230118 41 301 14.0 17.0 0.13 0.00 0.00 90 1012.0
20141029225618 42 281 16.0 20.0 0.13 0.00 0.00 90 1012.0
20141029225118 42 290 17.0 21.0 0.13 0.00 0.00 90 1011.7
20141029224619 42 291 13.0 17.0 0.13 0.00 0.00 90 1011.6
20141029224118 42 297 15.0 19.0 0.13 0.00 0.00 90 1011.4
20141029223618 42 307 15.0 19.0 0.13 0.00 0.00 90 1011.4
20141029223119 42 284 15.0 20.0 0.13 0.00 0.00 90 1011.5
20141029222618 42 308 15.0 19.0 0.13 0.00 0.00 90 1011.4
20141029222119 42 291 15.0 19.0 0.13 0.00 0.00 89 1011.6
20141029221622 42 302 16.0 21.0 0.13 0.00 0.00 89 1011.6
20141029221118 42 295 16.0 24.0 0.13 0.00 0.00 89 1011.8
20141029220619 42 278 16.0 22.0 0.13 0.00 0.00 90 1011.7
20141029220119 42 298 15.0 21.0 0.13 0.00 0.00 90 1011.7
20141029215619 42 298 14.0 21.0 0.13 0.00 0.00 91 1011.7
20141029215119 42 308 12.0 17.0 0.13 0.00 0.00 91 1011.5
20141029214620 42 294 15.0 17.0 0.13 0.00 0.00 91 1011.3
20141029214119 42 288 13.0 18.0 0.13 0.00 0.00 92 1011.1
20141029213619 42 307 12.0 16.0 0.13 0.00 0.00 92 1011.1
20141029213119 42 318 12.0 20.0 0.13 0.00 0.00 92 1011.0
20141029212622 42 291 13.0 17.0 0.13 0.00 0.00 92 1011.0
20141029212120 42 315 15.0 18.0 0.13 0.00 0.00 91 1010.9
20141029211619 42 318 14.0 18.0 0.13 0.00 0.00 92 1011.0
20141029211119 42 311 15.0 19.0 0.13 0.00 0.00 90 1011.1
20141029210619 42 305 21.0 23.0 0.13 0.00 0.00 74 1011.1
20141029210120 43 312 21.0 26.0 0.13 0.00 0.00 89 1011.1
20141029205619 44 330 20.0 26.0 0.13 0.00 0.00 86 1011.0
20141029205120 44 281 13.0 20.0 0.13 0.00 0.00 85 1010.9
20141029204619 44 315 13.0 18.0 0.13 0.00 0.00 84 1010.9
20141029204119 44 284 18.0 23.0 0.13 0.00 0.00 83 1010.6
20141029203619 44 326 17.0 21.0 0.13 0.00 0.00 82 1010.6
20141029203119 44 307 16.0 19.0 0.13 0.00 0.00 82 1010.5
20141029202619 44 291 22.0 29.0 0.13 0.00 0.00 81 1010.3
20141029202119 44 294 21.0 28.0 0.13 0.00 0.00 82 1010.1
20141029201619 45 293 20.0 24.0 0.13 0.00 0.00 83 1010.3
20141029201119 45 297 18.0 23.0 0.13 0.00 0.00 83 1010.3
20141029200619 44 290 17.0 21.0 0.13 0.00 0.00 84 1010.3
20141029195119 44 294 22.0 30.0 0.13 0.00 0.00 82 1010.5
20141029194659 44 294 21.0 29.0 0.13 0.00 0.00 83 1010.4
20141029194619 44 294 21.0 29.0 0.13 0.00 0.00 83 1010.4
20141029194119 44 315 20.0 24.0 0.13 0.00 0.00 83 1010.4
20141029193619 44 307 20.0 30.0 0.13 0.00 0.00 83 1010.1
20141029193119 45 290 21.0 28.0 0.13 0.00 0.00 83 1009.9
20141029192619 45 316 22.0 27.0 0.13 0.00 0.00 83 1009.9
20141029192119 45 308 20.0 27.0 0.13 0.00 0.00 83 1009.7
20141029191619 45 291 21.0 27.0 0.13 0.00 0.00 83 1009.7
20141029191119 45 311 18.0 24.0 0.13 0.00 0.00 82 1009.8
20141029190619 45 300 26.0 33.0 0.13 0.00 0.00 82 1009.9
20141029190119 45 293 18.0 27.0 0.13 0.00 0.00 82 1009.9
20141029185619 44 297 22.0 27.0 0.13 0.00 0.00 82 1009.9
20141029185119 45 318 22.0 28.0 0.13 0.00 0.00 82 1010.0
20141029184619 45 277 24.0 32.0 0.13 0.00 0.00 86 1010.1
20141029184119 45 301 24.0 31.0 0.13 0.00 0.00 81 1009.9
20141029183619 45 276 25.0 32.0 0.13 0.00 0.00 86 1009.8
20141029183119 45 290 24.0 32.0 0.13 0.00 0.00 85 1009.6
20141029182619 45 280 23.0 31.0 0.13 0.00 0.00 85 1009.6
20141029182119 45 297 19.0 25.0 0.13 0.00 0.00 85 1009.5
20141029181619 45 302 22.0 28.0 0.13 0.00 0.00 85 1009.4
20141029181119 46 315 20.0 26.0 0.13 0.00 0.00 86 1009.6
20141029180619 45 285 22.0 30.0 0.13 0.00 0.00 85 1009.5
20141029180119 45 288 22.0 29.0 0.13 0.00 0.00 86 1009.7
20141029175619 45 295 27.0 34.0 0.13 0.00 0.00 86 1009.8
20141029175120 45 288 21.0 28.0 0.13 0.00 0.00 86 1009.9
20141029174619 45 301 23.0 29.0 0.13 0.00 0.00 87 1010.0
20141029174119 45 284 23.0 32.0 0.13 0.00 0.00 87 1010.1
20141029173624 45 288 20.0 25.0 0.13 0.00 0.00 89 1010.1
20141029173119 45 290 20.0 24.0 0.13 0.00 0.00 89 1009.9
20141029172619 45 297 22.0 31.0 0.13 0.00 0.00 89 1009.7
20141029172119 45 298 22.0 28.0 0.13 0.00 0.00 90 1009.6
20141029171619 46 291 22.0 28.0 0.13 0.00 0.00 90 1009.6
20141029171119 46 288 26.0 32.0 0.13 0.00 0.00 89 1009.4
20141029170619 46 285 26.0 32.0 0.13 0.00 0.00 88 1009.5
20141029170120 46 290 24.0 34.0 0.13 0.00 0.00 87 1009.5
20141029165619 46 269 26.0 33.0 0.13 0.00 0.00 86 1009.6
20141029165119 46 295 27.0 34.0 0.13 0.00 0.00 85 1009.7
20141029164623 46 288 21.0 29.0 0.13 0.00 0.00 85 1009.9
20141029164120 47 283 21.0 30.0 0.13 0.00 0.00 85 1010.0
20141029163619 47 290 23.0 29.0 0.13 0.00 0.00 83 1009.9
20141029163129 47 284 22.0 31.0 0.13 0.00 0.00 83 1009.9
20141029162619 47 284 20.0 33.0 0.13 0.00 0.00 82 1009.8
20141029162541 46 294 26.0 34.0 0.13 0.00 0.00 86 1009.9
20141029162119 47 302 23.0 35.0 0.13 0.00 0.00 82 1009.7
20141029161619 47 295 21.0 30.0 0.13 0.00 0.00 83 1009.7
20141029161119 47 291 21.0 31.0 0.13 0.00 0.00 83 1009.5
20141029160619 47 294 20.0 27.0 0.13 0.00 0.00 83 1009.5
20141029160119 47 288 25.0 34.0 0.13 0.00 0.00 84 1009.6
20141029155619 47 294 24.0 31.0 0.13 0.00 0.00 82 1009.6
20141029155123 47 281 18.0 26.0 0.13 0.00 0.00 85 1009.8
20141029154620 46 287 20.0 29.0 0.13 0.00 0.00 86 1009.8
20141029154122 46 294 26.0 34.0 0.13 0.00 0.00 86 1009.9
20141029153619 46 276 24.0 38.0 0.13 0.00 0.00 86 1009.9
20141029153119 46 288 23.0 34.0 0.13 0.00 0.00 86 1009.9
20141029152620 46 288 25.0 36.0 0.13 0.00 0.00 88 1009.9
20141029152122 46 287 21.0 33.0 0.13 0.00 0.00 88 1009.8
20141029151620 46 280 24.0 34.0 0.13 0.00 0.00 89 1009.5
20141029151119 46 288 24.0 33.0 0.13 0.00 0.00 88 1009.4
20141029150620 46 294 19.0 28.0 0.13 0.00 0.00 89 1009.4
20141029150121 46 293 23.0 31.0 0.13 0.00 0.00 90 1009.4
20141029145620 46 287 22.0 32.0 0.13 0.00 0.00 90 1009.4
20141029145120 46 300 25.0 33.0 0.13 0.00 0.00 90 1009.6
20141029144120 46 280 23.0 30.0 0.13 0.00 0.00 89 1009.6
20141029143620 45 284 20.0 29.0 0.13 0.00 0.00 90 1009.7
20141029143120 45 297 20.0 26.0 0.13 0.00 0.00 91 1009.8
20141029142620 45 291 18.0 27.0 0.13 0.00 0.00 91 1009.8
20141029142119 44 293 22.0 31.0 0.13 0.00 0.00 91 1009.6
20141029141620 44 280 21.0 27.0 0.13 0.00 0.00 91 1009.6
20141029141121 44 300 15.0 22.0 0.13 0.00 0.00 91 1009.5
20141029140620 44 285 18.0 26.0 0.13 0.00 0.00 91 1009.2
20141029140120 44 290 18.0 25.0 0.13 0.00 0.00 91 1009.2
20141029135620 43 298 20.0 27.0 0.13 0.00 0.00 92 1009.2
20141029135119 43 298 15.0 22.0 0.13 0.00 0.00 92 1009.2
20141029134621 43 260 14.0 23.0 0.13 0.00 0.00 92 1009.4
20141029134120 43 293 14.0 21.0 0.13 0.00 0.00 92 1009.5
20141029133620 43 274 13.0 19.0 0.13 0.00 0.00 92 1009.6
20141029133121 42 291 16.0 21.0 0.13 0.00 0.00 92 1009.7
20141029132622 42 297 14.0 23.0 0.13 0.00 0.00 92 1009.8
20141029132120 42 287 15.0 21.0 0.13 0.00 0.00 93 1009.9
20141029131619 42 293 16.0 22.0 0.13 0.00 0.00 93 1010.0
20141029131121 42 252 14.0 18.0 0.13 0.00 0.00 93 1009.8
20141029130620 42 281 14.0 21.0 0.13 0.00 0.00 93 1009.8
20141029130122 42 294 15.0 23.0 0.13 0.00 0.00 93 1009.6